Torna al catalogo

FLOCK 4G 27

AttivoScienzaSSO
NORAD 62641·PAYLOAD·🇺🇸 United States

Lanciato Jan 14, 2025 da Vandenberg Space Force Base

Loading…

Prossimi Passaggi (prossime 24 ore)

TLE

AggiornatoSource: CelesTrak SupGP

Epoca: Sep 14, 2026, 18:45 UTC

1 62641C 25009AJ  26257.78146991  .00005081  00000+0  17079-3 0  2579
2 62641  97.3883 338.7254 0002097  34.7636 197.8654 15.30876629    16

Traccia FLOCK 4G 27 in tempo reale con AllMySat

Download on the App Store